User: anonymous   Login
Location: Unspecified
(0.0000°N, 0.0000°E)
Time: 09:07:49
(UTC+00:00)
Language:

SJ-6E - Orbit

View from above orbital plane
View from above orbital plane
View from above satellite
View from above satellite

Ground track
Ground track

The orbit data is extracted from the following two-line orbital elements,

1 33408U 08053A   18018.75755154 -.00000072  00000-0 -14741-5 0  9994
2 33408  97.6621   0.6338 0015846 235.0142 124.9607 14.93746918502965
Epoch (UTC): 18 January 2018 18:10:52
Eccentricity: 0.0015846
inclination: 97.6621°
perigee height: 575 km
apogee height: 597 km
right ascension of ascending node: 0.6338°
argument of perigee: 235.0142°
revolutions per day: 14.93746918
mean anomaly at epoch: 124.9607°
orbit number at epoch: 50296

The dashed part of the orbit path shows where the satellite is in the earth's shadow,  

DLR